Theta_e
351 350 351 357 358 359 360 359 360 357 359 361 361 361 359 360 360 361 362 362 362 363 363 362 362 362 362 362 362 362 362 363 363 362 363 362 362 362 362 360 359 359 359 357 359 361 361 361 361 362 362 361 363 363 364 363 364 364 364 364 364 364 363 363 363 363 362 362 362 362 361 362 362 362 362 361 361 361 363 364 364 361 361 362 363
349 353 353 356 359 360 360 359 360 357 359 361 360 359 359 357 358 361 361 360 361 361 363 363 362 362 363 363 363 362 362 362 363 362 363 363 363 363 362 362 359 359 358 357 357 360 360 361 361 361 361 362 362 364 364 363 364 364 364 364 363 363 363 363 362 363 363 363 363 362 362 361 361 361 361 361 362 362 364 364 363 361 360 362 363
352 354 355 358 359 360 360 360 359 360 360 360 361 360 359 360 358 358 359 360 361 361 361 362 362 362 361 363 363 363 362 362 362 362 363 363 361 360 360 360 359 358 358 359 360 359 360 361 362 362 361 362 363 362 363 363 363 364 364 364 364 363 363 362 362 361 363 362 362 362 362 363 362 361 361 361 363 364 364 363 363 362 359 362 362
352 354 355 359 360 360 359 358 362 361 360 359 359 359 360 358 358 358 357 358 362 361 360 361 361 362 362 362 363 363 362 362 361 362 362 361 360 361 361 361 360 358 359 359 359 361 361 361 362 362 362 363 363 364 364 363 364 364 364 364 364 364 363 362 362 362 362 363 362 360 360 360 361 362 362 362 363 364 364 362 362 361 361 361 362
353 355 356 357 358 359 359 360 359 361 360 360 360 361 357 357 356 359 360 359 362 361 361 361 361 362 363 362 362 361 362 361 361 362 361 361 360 361 361 362 361 360 359 358 359 360 361 362 362 363 362 362 362 364 364 364 363 364 364 363 363 364 363 363 362 363 364 363 362 359 358 359 361 362 361 363 363 364 363 362 362 361 361 362 362
353 355 355 356 356 359 360 360 361 361 361 361 361 360 359 358 356 358 359 360 361 360 360 361 362 361 363 363 363 361 361 361 361 361 360 360 359 359 359 359 358 359 361 361 359 360 360 361 361 362 363 362 362 364 364 364 363 363 363 363 363 363 363 363 363 363 364 363 361 358 358 360 360 359 362 362 362 361 362 361 361 361 361 361 360
354 354 355 355 356 358 360 360 360 360 361 361 361 360 360 358 355 354 356 357 358 359 361 361 361 363 363 363 363 363 362 361 361 360 360 359 358 356 358 360 359 359 360 361 362 361 361 361 361 361 362 363 363 363 363 363 363 363 363 363 362 362 363 363 364 364 362 358 356 357 357 358 360 359 361 361 361 361 361 360 360 360 360 360 360
355 355 355 355 356 359 360 360 360 360 361 361 361 360 360 357 356 356 357 357 358 359 359 360 362 362 362 363 363 363 363 362 361 360 360 358 357 356 358 361 360 359 359 360 360 361 361 361 361 361 361 361 362 363 362 361 362 363 363 363 362 362 363 364 364 363 361 354 355 355 356 358 359 358 360 360 360 360 360 361 360 360 359 359 359
353 354 355 355 357 361 360 360 360 361 361 361 360 360 359 354 358 357 357 359 360 359 359 361 361 361 362 363 363 362 363 363 362 361 361 355 354 357 359 358 358 358 360 360 359 361 361 362 362 362 363 362 362 362 361 362 363 363 363 363 362 362 362 363 363 362 356 354 354 354 355 356 356 357 359 360 359 359 359 359 359 359 358 358 358
353 353 353 353 355 361 360 360 361 361 361 361 360 360 357 355 357 357 357 358 359 358 360 361 360 361 362 362 363 363 363 362 361 362 361 355 352 354 357 358 358 358 358 359 359 361 361 361 362 363 361 361 362 361 361 363 362 363 363 364 363 362 361 361 361 359 353 354 353 353 357 359 355 355 357 358 359 359 358 358 357 356 356 356 356
351 352 352 353 355 360 360 361 361 361 361 361 360 359 357 357 356 356 356 358 358 360 361 360 361 361 362 363 362 362 362 362 362 361 360 356 355 354 357 356 354 353 356 357 358 360 361 361 362 362 362 361 361 362 363 362 363 362 362 361 360 361 362 361 360 354 353 353 353 356 358 358 357 357 358 358 359 360 360 357 357 358 357 357 357
351 351 351 354 359 360 360 360 361 361 360 360 360 360 359 357 356 353 356 358 357 358 359 361 360 361 361 362 362 362 362 362 362 361 361 359 356 357 357 355 355 355 355 355 355 360 361 362 362 362 362 361 362 362 361 361 360 360 359 360 361 361 362 362 353 353 353 352 354 355 358 357 356 357 358 358 359 359 359 359 359 359 358 358 358
351 351 352 354 358 360 359 360 361 361 360 360 360 360 359 358 355 353 354 356 357 359 360 360 361 361 361 362 362 362 362 362 362 359 359 360 359 358 358 357 355 353 353 356 358 360 362 362 362 362 361 361 361 360 360 361 360 360 361 362 363 362 363 364 352 352 353 353 355 357 355 356 357 360 359 359 359 359 359 359 359 358 357 357 357
350 351 351 353 356 360 360 361 360 359 360 360 360 360 359 359 355 355 353 355 357 358 360 361 361 360 360 362 362 362 362 362 361 361 361 358 357 355 354 356 358 356 356 358 357 359 360 361 361 360 360 360 361 360 360 360 361 363 363 364 364 363 364 363 355 352 354 353 357 353 354 357 356 360 359 360 360 360 359 358 357 356 355 356 356
349 350 351 354 356 358 359 358 359 358 359 359 358 358 358 358 356 355 354 355 356 358 359 360 361 360 360 361 361 362 362 361 361 361 361 360 357 356 354 357 359 360 359 358 360 361 362 362 362 361 360 360 360 361 360 361 362 363 363 363 363 363 365 355 353 353 353 355 356 357 353 355 357 360 359 359 360 357 355 356 355 354 355 354 354
351 351 354 354 355 356 356 357 355 358 359 358 358 356 357 357 357 355 355 355 356 359 360 359 358 358 359 361 362 361 361 361 361 361 361 360 360 358 355 358 362 363 362 362 362 362 362 361 362 362 361 362 361 361 361 361 362 362 363 363 363 362 362 357 354 353 354 355 355 357 354 355 357 359 359 357 354 353 354 354 355 353 352 354 352
352 355 354 354 353 353 351 353 356 358 358 358 356 356 357 356 357 355 354 355 353 356 357 356 357 358 358 360 361 361 361 360 360 360 361 360 359 359 360 362 362 363 364 363 363 364 363 363 363 363 362 363 363 363 363 363 364 364 364 364 363 363 361 358 352 353 354 355 355 355 354 354 357 358 356 355 354 353 352 352 351 351 352 350 352
354 354 353 354 353 352 350 350 349 349 350 354 357 357 358 355 356 355 354 354 355 355 355 356 355 356 359 360 361 361 361 361 360 360 361 361 360 359 361 363 363 363 363 363 363 363 363 364 363 363 362 363 363 363 364 364 364 365 365 365 363 362 363 361 352 353 353 356 356 356 355 356 358 357 357 355 354 353 352 352 351 351 350 350 351
353 354 354 354 353 350 349 348 348 347 348 350 349 356 357 357 358 357 355 353 354 355 356 357 358 357 360 361 362 361 361 361 360 360 359 361 360 360 361 363 364 363 363 362 362 362 361 362 362 361 362 362 363 363 364 364 364 365 366 366 365 363 365 364 352 352 353 356 356 355 354 355 357 357 357 355 354 353 353 352 352 351 351 350 351
352 353 353 353 353 347 348 348 347 348 349 349 349 348 355 356 357 356 357 354 354 353 355 358 359 359 360 360 361 361 360 360 360 361 359 361 361 361 362 362 363 362 363 363 363 363 363 363 363 363 364 363 364 365 365 365 365 366 366 366 364 363 363 355 350 351 352 355 357 354 354 356 358 357 356 354 353 353 353 353 353 352 352 352 353
352 352 351 351 351 347 347 348 349 349 348 348 348 349 352 355 352 352 354 353 351 351 351 356 357 357 360 359 364 357 356 357 359 360 362 363 361 361 363 362 361 363 362 363 363 363 363 363 364 364 364 365 365 366 366 366 366 366 366 366 365 366 358 351 349 351 351 354 358 352 355 357 358 357 356 354 353 353 354 353 353 353 354 355 354
348 350 351 351 349 348 346 348 349 348 348 347 348 351 352 351 347 350 355 353 354 353 352 354 355 352 360 360 359 359 354 356 360 364 361 363 363 362 362 363 363 362 363 363 364 363 363 363 364 364 365 365 366 366 365 366 367 367 368 367 363 362 360 352 349 350 352 353 357 353 356 357 358 357 356 355 354 355 355 354 354 354 356 357 357
347 349 349 350 350 349 350 347 347 347 346 348 349 352 349 348 347 349 351 351 355 351 350 353 351 355 357 357 357 356 357 356 360 361 363 361 363 363 361 362 362 362 362 363 365 365 363 363 363 363 364 366 364 361 361 360 359 365 365 359 355 356 360 353 349 350 352 351 355 354 357 358 359 358 356 356 355 356 356 356 357 357 357 357 358
346 348 348 350 350 349 347 348 346 346 346 347 346 348 349 348 349 350 350 351 352 351 352 354 354 355 355 355 355 358 355 353 363 364 365 357 357 362 364 365 365 364 363 363 362 362 362 362 361 362 361 357 356 357 358 359 358 358 357 356 355 354 356 359 349 350 352 352 353 356 357 359 359 358 357 357 356 357 357 357 357 358 358 358 359
347 349 350 349 349 349 349 349 348 347 347 349 347 348 349 347 348 348 349 352 351 353 354 354 355 354 354 355 356 357 354 353 352 352 353 353 352 352 354 354 354 354 362 356 356 354 356 353 354 355 353 354 354 355 356 356 358 357 356 356 355 354 354 359 350 349 351 352 354 356 358 359 359 358 358 358 357 358 359 358 359 359 360 360 361
349 347 347 349 349 350 349 349 349 349 350 350 349 351 351 348 347 347 350 351 352 352 353 353 353 353 354 357 356 352 352 352 351 350 350 350 351 351 352 352 352 353 356 354 353 353 353 353 353 354 354 353 353 353 353 357 355 354 354 354 353 354 352 351 349 349 350 351 356 356 359 359 359 359 359 360 359 359 360 359 360 361 362 362 363
346 346 348 349 349 350 350 349 349 350 350 351 351 351 347 348 348 351 350 350 351 351 351 352 353 353 353 358 353 351 349 348 349 348 349 348 351 351 351 351 351 351 354 354 353 354 354 355 355 355 354 354 354 354 354 353 354 353 353 352 351 349 347 346 347 348 349 351 355 358 359 358 359 360 360 361 361 360 361 361 362 363 363 363 364
345 346 348 349 350 349 350 349 348 349 349 350 350 348 348 349 353 355 351 356 352 351 351 352 353 352 356 355 356 350 350 348 348 347 348 346 349 350 350 350 351 352 354 356 355 356 356 355 354 353 353 354 353 353 353 353 353 353 352 349 346 345 345 344 346 347 348 350 354 358 359 359 361 361 361 362 362 362 361 362 363 364 364 364 365
344 345 346 348 348 349 349 348 348 349 349 350 349 348 348 350 353 352 349 356 349 350 350 352 351 355 355 356 357 352 347 347 346 347 347 347 347 348 350 351 352 354 356 356 355 354 353 351 352 352 353 352 351 351 352 351 353 352 351 346 345 344 344 343 344 344 346 349 352 355 359 361 363 363 363 363 363 365 365 364 364 365 365 365 366
344 345 346 348 349 350 348 347 348 348 349 349 348 347 347 348 350 351 349 355 349 350 352 350 350 352 352 354 355 354 350 347 347 346 348 348 348 349 351 352 353 354 354 353 353 352 351 351 352 352 350 351 351 350 356 352 350 348 345 346 344 344 345 344 343 343 345 348 351 353 360 364 364 364 364 364 364 365 367 368 367 367 366 367 368
345 344 347 348 350 349 348 348 349 350 349 348 348 347 349 348 351 351 351 351 350 352 352 350 350 351 352 354 354 356 355 348 347 347 348 349 349 350 351 351 351 351 353 351 351 352 354 354 353 352 353 353 352 350 353 350 345 344 347 344 345 347 345 345 343 342 343 347 349 352 354 364 366 365 365 366 366 366 367 368 369 369 370 370 370
344 344 347 349 349 349 349 349 350 350 350 349 350 348 348 349 351 351 351 351 352 350 350 350 354 350 352 353 353 352 357 352 347 348 349 349 350 350 351 352 352 353 354 353 353 356 359 359 358 358 357 355 353 351 350 345 343 343 345 344 346 346 347 346 343 343 343 345 347 349 352 354 363 367 368 368 368 368 368 369 369 369 369 369 370
345 347 348 349 349 349 349 350 351 351 349 349 350 349 349 350 351 351 352 354 353 351 350 350 350 351 352 352 353 353 357 354 351 350 355 353 351 351 352 355 354 355 355 356 359 358 355 354 356 358 353 356 350 349 348 342 343 343 344 344 345 346 346 346 346 344 344 344 346 347 349 352 354 357 364 369 370 369 369 369 369 370 369 369 369
345 347 348 348 350 350 351 351 351 350 350 350 350 349 349 351 353 351 356 354 353 351 352 351 352 353 353 353 353 353 357 354 353 351 352 354 353 353 353 354 355 356 357 361 357 356 353 352 354 355 356 355 350 351 346 342 342 343 343 343 344 347 346 345 345 345 345 345 346 347 348 349 350 353 355 359 365 369 371 370 370 371 371 371 371
348 346 347 348 350 349 351 351 352 350 352 351 351 349 350 351 352 350 353 352 352 352 350 351 350 351 355 355 355 355 357 355 355 354 354 354 354 354 353 353 354 358 359 358 357 354 352 352 354 354 351 351 351 356 345 342 342 342 343 345 343 344 345 344 345 345 345 347 348 347 349 349 349 349 351 354 358 360 364 368 371 372 372 372 372
346 347 348 349 348 349 351 351 352 350 350 350 350 349 350 350 351 354 350 352 353 351 351 350 352 355 358 356 356 357 360 357 357 356 354 353 353 353 353 355 357 362 359 358 359 355 353 353 354 354 352 350 352 349 347 342 341 340 341 343 342 348 345 344 343 342 342 346 347 348 349 350 350 350 354 352 353 354 357 360 363 366 369 372 373
347 347 348 347 346 348 351 350 351 349 350 350 349 348 349 349 349 353 351 351 351 351 350 352 356 358 357 356 357 361 358 356 359 358 354 356 357 356 354 357 361 359 356 354 354 357 355 354 355 358 354 353 347 346 346 343 341 341 340 339 339 345 346 346 344 342 341 342 342 342 345 348 351 356 357 355 355 356 355 358 360 362 363 366 367
348 348 348 347 346 347 349 350 351 350 349 349 348 348 348 349 349 350 355 350 349 349 350 353 356 357 358 357 358 363 361 360 361 360 355 357 356 357 360 358 362 358 357 354 354 355 357 355 356 355 358 352 348 347 345 343 339 337 341 338 342 342 343 345 345 351 348 343 342 341 342 342 344 345 348 351 351 355 356 357 360 362 363 365 367
348 348 348 347 346 348 350 351 350 349 349 350 349 349 349 348 348 348 349 349 347 347 350 352 355 358 359 359 360 364 367 361 362 363 358 362 361 360 359 359 364 359 354 352 353 356 360 355 356 354 352 356 349 347 347 346 346 345 341 338 338 342 344 342 349 346 343 341 341 344 341 344 342 342 345 345 345 349 353 355 353 350 350 354 359
347 347 348 347 346 348 348 350 348 348 348 349 350 347 347 347 344 345 345 349 346 350 351 352 355 356 359 360 362 363 366 364 361 361 358 365 361 359 359 362 362 356 353 353 356 357 359 358 355 360 348 352 353 351 348 351 344 346 352 346 345 347 349 346 350 342 347 344 342 345 342 344 348 348 347 346 344 343 348 351 359 361 360 359 363
346 346 346 346 346 347 347 347 347 348 348 347 346 345 343 343 343 342 342 343 346 347 350 351 354 356 359 360 362 364 363 365 366 362 356 365 362 359 359 360 362 362 358 358 359 361 363 359 359 357 352 349 350 352 349 344 341 342 342 342 347 348 358 353 345 342 342 344 346 347 349 351 348 348 352 351 351 352 353 356 357 359 359 360 361
344 345 345 346 346 347 346 347 347 347 347 347 347 345 343 343 341 342 342 342 347 349 348 350 354 356 359 360 363 363 362 363 368 363 363 360 360 360 360 359 358 355 364 358 362 362 355 355 352 350 347 350 350 352 351 342 342 338 337 339 345 346 352 349 351 350 349 346 347 348 350 348 348 352 353 353 353 354 353 355 357 356 358 359 359
344 345 345 346 346 346 346 347 346 346 346 347 346 344 345 347 344 343 344 344 347 350 349 353 357 356 358 360 363 361 362 363 366 367 360 362 361 360 361 359 356 364 355 353 354 354 354 353 353 346 346 347 352 354 355 346 346 344 341 340 336 337 347 344 346 346 346 349 349 348 351 346 347 352 353 354 353 355 352 354 354 355 356 357 359
345 344 345 345 345 347 346 346 346 346 346 348 350 346 346 347 347 346 346 347 346 353 353 355 357 357 357 360 361 361 361 362 363 367 367 363 361 360 360 358 360 360 353 354 354 355 354 354 351 352 345 344 345 350 358 350 349 346 337 337 333 334 332 335 337 344 347 349 351 350 348 348 347 351 355 352 349 352 353 354 354 356 356 357 358
343 343 344 345 345 345 345 345 345 345 345 351 350 346 350 347 348 350 353 350 350 349 349 351 354 356 357 358 360 360 360 361 362 363 368 362 360 359 359 361 358 357 357 355 354 356 356 354 354 352 347 343 346 349 353 357 352 348 344 339 336 334 332 335 337 342 344 346 353 352 353 354 346 348 349 348 349 351 350 352 355 355 356 356 356
343 344 345 345 345 344 345 344 344 344 344 347 348 347 350 344 344 343 342 343 343 344 344 346 349 353 355 357 360 361 360 361 360 361 365 366 359 357 360 361 359 357 365 359 357 354 354 354 357 353 355 353 349 347 348 357 354 356 347 341 344 336 337 335 336 338 344 346 347 347 351 349 347 348 351 350 349 350 355 353 353 354 354 354 355
343 345 345 344 344 344 344 344 344 344 345 346 347 350 346 344 344 343 343 342 342 343 347 349 351 353 356 356 359 360 360 360 361 360 361 366 363 361 361 362 362 359 366 360 358 356 354 353 365 355 356 360 351 349 348 350 352 353 354 353 356 349 344 343 338 340 336 343 343 344 345 348 350 349 349 352 350 352 354 354 351 351 353 355 355
343 344 344 344 343 343 343 343 344 347 345 346 346 348 345 344 343 344 344 342 342 344 346 348 351 355 354 356 357 359 359 360 360 358 360 362 366 362 361 362 361 358 364 363 362 359 357 356 363 359 362 358 352 352 350 350 349 350 356 353 355 352 350 347 343 339 338 333 339 343 345 348 348 348 350 352 351 351 353 353 351 353 356 356 356
343 342 343 343 343 343 344 343 343 346 345 348 347 347 348 345 344 343 343 345 344 345 349 354 352 357 353 354 355 356 357 358 358 358 359 360 366 366 362 361 362 360 366 366 361 359 357 356 356 357 357 356 355 354 354 353 352 353 352 353 349 349 347 349 349 344 343 336 337 338 341 346 348 349 349 354 355 352 352 352 353 355 357 356 356
342 343 343 343 343 343 343 342 342 344 345 347 349 347 347 348 343 343 343 344 348 348 348 350 350 353 351 351 353 353 355 355 357 358 358 359 361 365 364 361 361 361 368 366 362 358 356 357 357 359 361 359 358 362 359 357 355 356 354 351 350 350 349 348 346 342 342 339 337 337 340 340 340 346 349 352 352 354 353 352 351 352 353 355 358
341 341 341 341 342 342 343 341 341 343 346 347 348 347 346 347 344 344 343 343 345 345 345 346 348 350 349 350 351 352 353 354 356 359 359 360 361 364 364 361 362 366 369 366 363 360 357 355 356 359 361 359 357 358 360 360 360 357 355 352 353 349 349 346 347 346 342 341 340 339 340 342 340 340 349 351 356 355 352 352 351 351 355 355 356
Wind_Speed
3 4 3 5 6 7 8 10 11 11 8 8 10 9 5 6 6 7 7 8 9 10 10 11 11 11 12 12 12 11 11 11 10 10 11 12 13 14 14 14 17 15 15 10 7 10 11 10 10 12 12 12 12 11 12 12 13 13 13 14 14 15 15 15 15 15 15 15 14 14 13 13 12 12 12 13 13 13 13 12 11 8 7 9 12
6 4 4 3 8 7 8 10 12 12 10 9 9 9 11 8 5 5 6 7 9 10 11 11 11 12 12 12 12 11 11 9 10 12 11 11 12 14 16 15 16 14 13 11 7 11 11 9 9 13 13 12 11 12 12 13 14 13 13 14 15 15 14 15 15 14 14 14 13 13 13 13 12 12 12 12 13 12 12 12 12 7 6 11 12
6 5 3 4 6 6 8 11 11 11 10 9 9 7 12 11 7 6 6 7 9 9 10 11 11 12 12 13 12 11 11 11 11 11 11 11 13 14 15 15 12 15 11 11 11 10 10 11 10 11 12 14 13 14 13 13 13 13 13 13 13 14 14 14 15 13 14 14 14 13 14 13 12 13 13 13 14 13 13 12 12 9 7 12 11
6 4 3 5 7 7 7 8 8 11 12 10 8 9 12 9 8 8 6 5 9 10 9 10 11 11 12 13 12 11 11 12 11 12 12 13 13 14 14 14 13 14 15 13 11 11 11 11 11 12 12 13 14 14 14 13 13 13 13 13 12 13 13 13 13 13 13 12 11 9 4 5 8 12 12 13 13 13 12 12 11 11 11 11 12
6 4 4 2 3 5 7 8 9 9 9 10 9 10 12 12 7 7 6 7 9 8 8 9 10 11 12 12 12 12 12 12 12 12 14 15 12 12 11 12 11 12 16 16 13 12 11 11 11 10 12 12 13 14 14 13 13 13 13 13 12 12 12 12 13 13 14 12 11 7 3 4 4 11 12 12 12 12 12 11 11 11 11 11 11
5 4 4 4 2 3 8 9 9 9 9 9 9 9 8 13 12 7 8 8 8 7 5 8 10 11 12 12 12 12 12 12 12 13 14 14 12 10 10 11 9 7 12 15 15 12 13 13 11 10 11 12 13 14 14 14 14 13 12 12 12 13 13 13 12 13 12 11 10 4 4 4 4 6 12 12 12 11 11 11 11 11 11 11 11
6 3 4 4 3 2 7 8 9 9 9 9 9 8 8 13 15 8 7 9 5 6 6 5 8 11 11 12 12 12 11 12 12 13 15 14 11 8 8 10 8 9 12 13 13 13 12 13 12 11 11 13 13 14 14 14 13 12 11 11 11 12 12 12 12 13 12 7 3 4 3 4 4 4 11 10 11 11 11 11 10 11 10 10 10
5 4 4 3 3 5 9 8 8 8 9 9 9 8 9 16 15 11 8 9 5 6 6 5 7 10 11 11 12 12 11 11 11 13 15 14 11 7 9 10 7 7 11 12 11 11 12 11 12 12 12 12 12 12 12 12 12 11 10 9 10 11 11 11 11 11 11 5 4 4 4 4 4 4 9 10 10 10 9 10 9 9 9 9 10
5 4 4 4 3 9 8 9 8 9 8 8 8 9 10 14 13 10 9 9 8 6 6 5 6 7 10 11 12 12 11 10 11 11 15 17 11 10 12 11 5 5 9 11 10 9 9 10 11 11 11 12 11 10 11 11 10 9 9 9 8 9 9 9 10 11 6 4 5 4 5 4 3 2 8 9 9 8 8 7 7 8 8 8 9
4 4 4 3 3 9 8 8 8 8 8 8 8 8 15 10 10 8 8 9 8 5 6 6 5 4 9 10 11 11 10 10 9 9 12 21 13 10 13 14 9 6 7 8 7 9 10 10 10 9 11 11 9 9 10 9 8 8 8 7 7 6 7 8 9 7 4 4 4 5 4 4 3 2 6 8 8 8 8 7 5 6 6 7 7
3 3 3 3 3 8 8 8 8 8 7 7 8 10 13 12 9 8 9 9 8 7 7 7 6 6 9 10 10 10 10 9 8 8 10 17 18 12 13 17 13 6 7 7 7 6 10 10 9 7 8 9 9 8 8 8 8 7 6 5 5 5 5 7 7 3 3 4 3 2 5 7 3 1 8 8 8 9 9 8 7 7 7 6 6
4 2 2 2 6 8 7 7 7 7 7 7 8 9 11 12 13 7 8 9 9 8 8 7 6 4 7 9 10 10 10 9 9 8 10 12 15 15 14 16 16 12 7 7 4 7 9 8 7 6 7 8 8 8 7 6 6 6 5 4 3 4 4 7 5 3 3 3 3 1 2 3 1 2 8 8 7 7 7 6 6 6 6 5 5
4 3 2 1 1 7 6 6 6 6 6 7 7 8 10 12 12 8 9 9 8 9 9 8 7 4 7 8 9 10 10 9 9 10 10 11 11 11 11 12 16 17 12 9 6 6 8 8 7 6 6 7 7 6 6 6 5 5 5 5 5 2 5 9 5 4 3 3 2 1 2 1 0 2 6 6 5 6 5 5 5 5 5 4 4
5 3 2 2 1 6 6 5 5 5 6 6 6 8 9 11 11 11 9 9 8 9 9 9 7 5 5 7 8 9 10 9 9 8 9 14 14 8 6 8 10 13 17 13 9 8 9 8 8 7 6 6 5 5 5 5 5 6 7 7 7 5 6 7 6 4 3 3 2 2 2 1 1 2 5 5 5 6 6 5 5 4 4 4 4
6 5 3 3 2 2 7 3 4 4 5 6 5 6 6 10 11 11 6 9 8 7 9 8 8 5 4 7 7 7 8 9 9 9 9 10 17 16 6 4 7 9 11 11 10 9 8 8 7 6 6 5 5 5 5 5 6 7 7 7 8 6 6 3 3 3 2 2 1 2 2 1 2 2 6 6 7 6 4 4 3 3 3 3 3
5 5 3 4 5 6 4 3 2 4 6 5 6 4 5 6 12 12 7 5 7 7 7 7 6 5 3 6 6 6 6 7 8 9 9 9 10 14 13 8 8 9 9 9 9 8 7 6 6 5 5 5 5 4 5 5 5 5 6 6 6 4 4 4 2 2 2 1 1 1 1 1 3 4 6 6 5 3 4 4 4 4 3 4 2
5 5 5 5 7 7 3 5 0 3 4 6 4 5 5 2 7 9 10 6 4 8 5 5 4 5 5 5 6 5 5 6 7 8 8 8 9 9 10 10 9 9 9 9 8 7 6 5 5 5 5 5 5 5 5 6 6 6 6 6 5 4 2 4 2 2 2 1 1 1 1 1 4 5 5 4 4 4 4 4 3 4 5 2 3
4 4 5 6 5 9 4 1 3 4 4 0 1 5 5 3 1 10 11 8 6 10 8 10 4 4 6 6 6 5 5 5 6 6 7 8 8 8 9 9 9 9 8 8 7 6 5 5 4 4 5 5 6 6 6 7 6 7 7 6 5 4 0 4 2 2 2 2 2 2 1 3 5 4 5 5 5 5 5 5 6 5 3 4 5
4 4 5 7 6 9 6 2 2 1 2 2 4 2 3 4 5 8 11 10 7 6 9 8 12 12 9 8 6 5 4 4 5 5 7 8 8 8 8 8 8 8 7 7 6 5 4 4 4 4 4 5 6 6 7 7 7 7 7 6 5 3 2 2 3 3 3 3 2 2 2 4 5 5 6 6 6 6 7 5 5 5 6 7 7
4 4 5 6 6 9 5 1 1 2 1 2 3 3 5 3 1 3 11 11 10 6 7 8 5 7 9 7 7 4 4 3 4 4 6 7 8 6 7 7 7 7 6 6 5 4 4 4 4 4 4 5 5 6 6 7 7 7 6 6 5 2 0 2 3 4 3 3 3 2 3 6 6 7 7 7 7 7 7 6 7 7 7 9 9
3 4 5 5 7 9 7 3 3 2 3 2 2 3 5 2 2 1 6 11 11 7 5 5 5 3 5 6 7 5 4 4 5 3 6 5 6 5 6 6 6 6 6 6 6 5 5 5 5 5 5 5 6 6 6 6 7 6 7 6 4 1 2 3 3 3 4 3 4 3 5 7 8 8 8 8 6 8 8 9 8 7 9 10 9
4 4 5 5 6 7 7 6 4 4 3 2 1 3 3 2 1 2 2 6 10 9 5 3 4 2 6 5 4 4 4 4 4 5 5 5 5 5 5 5 6 6 6 6 6 6 5 5 5 5 5 5 6 3 3 4 6 7 7 7 2 2 2 3 3 4 4 3 3 4 8 9 9 9 9 9 8 10 9 9 9 10 10 11 10
5 4 4 6 5 4 6 6 5 6 5 3 1 1 2 2 1 2 1 4 6 7 5 5 4 5 4 5 4 4 4 4 3 3 2 4 4 6 5 5 5 5 5 6 7 7 6 6 6 6 6 6 3 2 2 3 3 6 6 3 2 3 3 3 3 4 4 4 3 6 9 10 11 10 10 9 11 11 11 11 11 11 11 11 10
6 5 4 4 5 5 5 5 4 5 6 5 3 2 3 2 2 1 2 4 4 5 4 4 5 5 5 5 4 4 4 4 5 8 4 4 4 6 7 8 8 7 8 5 6 5 7 5 6 5 3 2 2 2 3 3 3 3 3 3 3 2 2 3 3 3 3 4 4 9 11 11 11 11 11 11 11 12 11 11 10 11 11 10 11
5 4 4 5 6 5 4 4 3 3 4 5 5 3 3 3 1 2 3 3 4 3 4 4 5 5 5 4 4 4 3 3 3 3 3 4 3 3 4 4 4 4 6 4 4 4 4 4 4 4 3 3 3 4 3 4 3 3 3 3 3 2 2 2 3 3 3 4 4 10 11 11 11 11 11 12 12 13 12 11 12 12 13 13 13
5 5 6 6 5 5 5 3 3 1 2 4 4 5 6 4 4 4 3 3 4 4 4 4 4 4 4 4 4 4 3 3 4 4 4 3 3 3 3 3 3 4 3 3 4 4 4 4 4 4 3 2 3 3 3 3 3 3 3 4 3 3 2 2 2 3 3 4 5 10 11 11 11 11 12 13 14 14 14 12 12 13 13 13 13
5 5 5 5 5 6 6 4 4 3 2 3 3 3 5 3 3 4 3 3 3 4 4 4 4 4 4 3 3 3 3 3 4 4 4 3 3 3 3 3 3 3 2 3 5 4 4 4 4 5 4 4 3 3 4 4 3 4 3 4 3 2 1 2 3 3 4 3 4 10 10 10 11 12 12 13 14 14 14 14 14 14 15 14 14
5 6 6 5 6 7 6 6 6 5 3 3 2 2 2 2 3 3 3 3 3 4 3 3 3 4 3 3 3 3 3 3 4 3 3 3 3 3 3 3 3 3 3 2 4 5 5 5 5 6 5 4 4 4 3 3 3 3 3 3 1 2 2 3 3 3 3 3 3 7 10 10 12 12 13 13 14 14 15 15 15 15 15 15 14
6 7 6 6 6 6 7 7 7 7 5 3 3 2 2 2 2 3 2 3 3 3 3 3 3 2 2 2 2 2 2 2 3 3 2 3 3 3 3 3 3 3 3 3 3 5 5 5 5 5 4 4 3 3 3 3 2 3 2 1 2 3 3 3 3 3 3 2 3 5 10 12 12 13 13 13 13 14 15 15 15 16 16 16 15
7 8 7 6 6 7 7 7 7 7 6 6 3 4 3 3 2 3 2 2 2 3 3 2 2 2 1 1 0 1 2 3 3 2 2 3 3 3 3 3 3 3 3 4 3 3 5 5 5 5 4 4 4 2 2 2 1 2 2 2 3 3 4 4 3 3 2 2 3 4 10 12 12 12 13 13 14 14 15 15 15 15 15 15 15
6 7 7 6 7 7 7 7 7 7 7 6 5 5 4 4 3 2 2 2 3 2 1 1 0 1 1 1 2 2 2 2 2 3 2 3 3 3 3 3 4 4 3 4 3 4 4 4 5 5 5 4 4 2 2 1 2 2 2 3 3 2 2 1 1 2 2 3 3 3 5 10 12 12 13 14 14 14 15 15 15 15 15 15 15
7 7 6 6 7 8 7 8 7 7 7 6 6 5 5 4 3 3 3 2 3 2 2 1 1 2 1 2 3 3 2 2 2 3 3 3 3 3 3 4 4 4 2 3 3 3 4 4 4 4 4 3 4 3 0 2 2 2 2 3 2 2 2 2 2 3 3 3 3 3 3 5 9 12 13 14 14 15 15 15 15 15 15 15 15
5 7 7 7 8 8 7 8 7 6 7 7 6 5 4 4 4 3 3 2 2 2 2 2 2 2 2 3 4 3 3 3 3 3 3 3 3 3 3 4 4 4 3 3 4 3 3 4 4 3 4 4 4 2 0 1 2 2 2 2 2 3 2 2 3 3 4 4 4 4 4 4 5 8 12 13 14 15 15 15 15 15 15 14 15
6 5 7 7 7 6 6 6 7 7 7 6 5 5 5 4 3 3 2 3 3 3 3 3 3 3 3 4 4 4 4 4 4 4 3 3 2 3 3 4 4 4 3 3 4 3 4 4 5 4 4 4 4 1 2 2 1 2 2 1 2 3 2 3 4 4 4 4 3 3 4 3 4 4 5 10 12 13 14 14 14 14 14 14 15
6 6 8 7 8 7 6 5 7 7 7 6 6 5 4 4 4 3 3 3 3 4 3 3 3 3 3 4 4 4 4 4 4 4 3 3 3 2 3 4 4 3 3 2 3 3 3 4 4 4 4 3 3 1 3 2 2 3 3 2 4 3 3 4 3 4 4 3 3 4 3 4 4 4 5 4 7 11 12 13 14 14 14 15 15
8 7 7 7 7 7 7 6 7 7 6 6 5 5 5 5 4 4 3 4 3 3 3 3 3 3 3 3 4 4 4 4 4 4 3 3 3 3 4 3 3 2 3 3 3 4 4 4 3 1 4 4 4 2 1 3 2 3 3 3 4 4 4 4 4 4 3 3 4 4 4 4 5 5 5 5 5 6 10 12 12 13 14 15 15
8 8 8 7 7 8 8 8 8 8 6 6 6 5 5 5 5 4 4 3 3 3 3 2 2 3 3 3 4 3 4 4 3 3 3 3 2 3 3 2 2 2 3 3 3 3 3 4 4 2 1 3 3 2 1 2 3 3 4 5 5 4 5 5 5 3 2 4 5 4 4 5 5 7 5 5 5 5 7 11 12 13 14 15 15
7 8 8 8 7 7 7 7 7 6 5 6 6 6 5 5 4 4 3 3 3 3 3 2 3 3 3 2 3 3 3 3 3 3 3 2 2 2 2 2 1 2 3 3 4 3 2 2 4 3 1 2 4 3 1 2 3 4 3 5 4 3 4 5 4 3 4 6 5 6 6 5 5 5 5 5 6 5 5 7 10 12 13 13 13
6 8 8 6 6 6 5 6 7 6 5 5 5 5 5 4 3 3 3 3 3 3 3 3 2 2 2 2 3 3 3 3 2 2 3 2 1 1 2 1 1 2 3 3 4 4 4 3 2 4 2 3 3 3 2 1 2 3 4 5 3 4 4 4 4 4 5 5 5 5 4 5 5 5 5 5 4 5 5 5 4 3 4 7 9
6 7 7 6 6 6 5 5 6 6 4 4 5 5 4 4 4 2 2 3 3 2 3 3 3 3 2 3 4 3 3 2 2 3 2 1 0 1 1 1 2 2 3 4 4 4 4 5 4 3 5 3 2 3 3 1 2 2 2 3 3 3 4 2 2 3 4 4 5 3 4 3 3 3 3 3 3 4 3 3 3 3 2 3 6
6 7 7 7 7 7 6 7 6 6 5 5 4 5 4 4 2 5 5 4 4 3 3 3 3 3 3 3 4 3 3 3 3 3 2 1 1 0 0 2 2 2 2 2 2 3 2 2 2 2 3 5 5 5 3 1 2 0 3 2 2 3 2 2 1 3 3 3 2 3 3 3 3 2 3 2 2 1 1 2 2 2 3 3 3
7 8 8 7 6 7 7 6 5 6 6 5 5 5 4 4 4 5 4 3 4 4 4 4 4 3 4 4 3 3 3 4 3 2 1 1 1 1 1 1 2 2 1 1 2 2 4 4 3 1 2 3 3 3 3 1 3 1 1 1 3 4 2 2 2 1 3 3 2 2 2 2 2 2 1 1 2 2 2 2 3 2 3 3 2
9 10 8 7 6 6 6 6 5 6 6 6 5 4 3 3 4 4 5 3 2 3 4 3 3 3 3 4 3 3 4 3 2 2 2 2 2 1 1 2 2 1 1 3 4 5 4 4 4 2 2 2 2 2 5 2 1 1 0 1 2 3 3 3 2 3 2 2 2 2 2 2 2 2 2 2 3 3 3 3 3 4 4 3 2
7 7 8 8 6 6 5 6 6 6 5 5 6 5 4 4 3 2 3 2 3 3 3 3 3 3 4 3 3 3 3 3 2 1 1 2 2 1 1 2 2 1 2 3 4 4 4 4 4 3 1 3 4 4 3 4 2 1 2 2 1 1 3 2 3 5 2 3 2 3 2 2 3 3 2 3 3 3 3 3 4 4 4 3 3
9 9 9 9 7 8 7 7 7 7 6 6 6 5 3 2 2 3 3 2 4 4 3 2 3 3 3 3 4 4 3 3 2 2 1 2 1 2 1 2 2 1 1 2 3 2 2 2 2 3 4 1 4 2 2 3 4 1 4 1 1 1 2 3 3 4 3 4 2 3 4 3 3 3 2 3 2 2 3 3 3 3 4 4 4
9 9 9 10 8 7 7 6 5 6 7 7 6 5 5 5 4 4 4 3 3 4 5 6 5 5 6 5 3 4 4 3 3 2 2 2 2 1 1 0 1 2 1 2 1 2 4 3 2 1 2 0 0 3 4 3 3 3 2 1 1 1 2 2 1 3 5 1 3 5 4 3 3 4 4 3 3 3 2 3 3 3 3 4 4
10 9 8 9 9 8 7 7 6 6 6 6 6 6 5 5 6 7 6 7 6 5 5 5 6 5 4 5 5 4 4 4 3 3 3 2 2 2 1 0 1 1 1 2 3 3 3 2 1 1 0 0 1 3 4 3 3 2 3 2 1 1 2 1 2 0 4 5 3 3 4 3 4 4 5 4 3 3 3 2 3 3 3 2 3
10 9 9 8 9 9 8 7 6 6 6 6 7 7 7 6 6 5 6 6 7 7 6 6 5 5 5 5 4 4 4 4 4 4 3 3 3 3 2 1 1 0 1 1 2 2 2 1 1 1 1 1 1 2 3 2 3 3 2 2 1 1 1 1 2 1 2 4 7 3 2 4 5 4 3 4 5 3 4 3 3 2 1 1 2
9 10 10 9 9 8 8 7 7 6 6 6 7 7 7 7 7 6 6 5 5 5 4 4 5 4 6 4 4 4 4 4 4 4 4 4 3 3 3 2 2 2 1 1 1 1 2 2 1 1 2 1 0 1 2 1 0 2 3 2 2 1 1 2 1 2 1 2 5 3 7 4 3 5 5 4 3 3 3 3 3 3 2 2 2
10 10 9 8 8 7 8 8 8 7 6 7 7 8 7 7 7 6 7 6 4 3 4 5 5 5 6 5 4 4 4 4 4 4 4 3 4 3 3 3 3 3 2 2 2 2 2 2 2 2 1 2 1 1 1 1 2 2 1 1 2 3 3 2 1 0 0 2 4 5 5 6 7 6 5 4 6 5 3 2 3 2 2 2 2
8 9 9 9 8 8 9 9 9 7 7 8 8 8 7 7 7 7 8 7 6 5 5 4 4 4 5 5 4 5 4 4 3 3 4 3 3 3 3 4 3 2 2 2 3 2 2 2 1 2 2 3 3 2 2 2 1 1 1 2 2 1 1 2 4 2 2 3 3 4 4 3 4 7 4 4 6 5 3 2 2 2 2 2 2
Wind_Direction
176 143 141 172 162 161 148 147 137 132 163 139 127 125 120 101 91 82 93 103 108 108 107 109 111 109 107 105 102 102 101 97 97 98 94 99 104 103 103 99 87 91 96 90 75 91 95 94 109 107 106 109 109 103 97 95 92 89 89 87 89 91 101 107 106 103 104 101 103 106 107 109 108 106 101 102 102 103 102 98 95 92 95 106 106
149 138 149 185 170 165 151 142 143 153 156 130 118 124 117 94 83 95 99 101 101 106 107 108 111 113 110 105 103 103 102 102 96 92 91 87 98 102 95 89 100 110 104 111 109 102 103 108 102 105 107 106 100 100 99 99 92 88 88 89 90 89 89 93 91 97 100 101 99 99 102 106 107 105 101 103 106 110 104 101 99 97 105 109 109
114 121 146 170 162 166 156 146 155 142 122 115 118 123 106 113 100 91 81 93 100 96 106 110 113 111 110 106 105 104 105 102 96 94 92 89 88 90 94 98 107 107 113 116 108 100 116 108 103 102 108 107 110 109 107 101 96 91 90 88 87 88 89 92 101 99 97 100 100 102 104 102 104 108 115 113 106 103 103 102 106 106 108 105 104
112 112 126 155 152 160 147 143 141 128 126 126 125 114 101 101 110 90 92 111 92 92 96 107 109 110 108 104 105 106 105 105 102 94 84 80 83 88 95 107 112 117 123 112 108 109 97 102 104 107 105 108 110 108 102 102 98 94 91 88 89 90 90 87 89 92 90 86 86 80 69 79 96 104 109 107 108 106 108 110 109 110 106 105 103
106 109 121 116 129 140 136 141 135 120 113 116 118 108 121 126 93 108 107 89 86 92 111 106 109 109 108 107 107 106 103 105 108 98 89 81 81 86 92 94 91 112 123 128 117 105 109 104 102 103 109 111 110 105 106 104 102 95 91 91 91 93 91 90 91 91 89 89 88 82 71 72 89 101 104 106 104 102 104 107 107 106 104 98 98
112 113 113 109 115 139 146 148 126 119 114 113 110 111 108 110 107 83 82 84 84 88 101 108 111 109 107 108 106 107 111 112 108 102 91 90 94 95 95 90 97 91 105 108 109 114 111 107 102 109 119 114 112 109 108 107 102 93 88 90 96 97 97 96 92 91 88 85 77 71 74 69 72 102 108 108 107 107 106 105 106 103 103 103 102
115 115 111 109 117 158 143 131 126 121 120 115 112 114 110 100 100 117 103 84 79 118 105 86 106 109 108 108 107 107 106 106 109 105 103 98 92 92 96 101 105 106 101 101 103 110 113 108 113 117 114 113 111 110 109 109 102 91 86 86 92 94 95 97 98 94 89 72 53 57 62 66 80 98 109 109 109 109 108 107 107 104 104 105 104
101 109 113 110 117 148 133 134 124 127 124 120 122 124 123 101 104 120 125 114 135 113 100 111 110 115 113 109 109 110 111 114 115 118 114 106 106 105 100 93 97 103 101 100 101 106 112 111 118 116 115 111 106 108 109 105 98 92 90 87 88 97 99 106 106 104 96 80 68 65 63 63 74 92 112 111 112 113 111 110 111 115 115 116 113
109 113 112 117 142 140 141 131 133 128 127 126 125 126 108 91 111 123 123 123 122 116 130 133 118 119 118 115 112 111 109 108 116 123 123 115 123 134 116 108 108 88 88 93 100 104 109 115 117 116 111 106 107 108 106 101 97 94 94 97 95 93 104 110 113 109 98 95 101 94 92 83 71 81 116 117 112 110 115 117 118 118 117 118 117
106 100 108 119 149 143 137 134 132 132 128 126 126 111 87 97 109 123 121 133 132 154 124 127 122 140 121 116 112 110 110 111 112 115 121 116 122 119 126 119 102 87 86 98 106 113 119 119 115 114 112 107 106 111 104 102 98 97 94 97 94 102 108 113 111 107 107 104 105 109 119 111 74 78 130 127 125 124 124 121 119 119 127 122 126
105 97 93 114 164 146 138 139 136 131 127 123 121 108 115 122 113 117 126 129 137 143 132 137 142 136 126 120 117 114 114 114 114 111 109 115 123 135 121 113 116 114 110 102 105 115 114 111 108 107 109 112 112 107 104 97 101 100 98 92 94 107 128 132 112 88 92 101 105 110 128 126 106 79 140 138 138 142 144 144 139 137 128 127 120
109 96 95 116 161 144 141 141 135 130 127 127 122 116 116 124 122 137 138 133 148 149 142 143 144 145 136 124 118 116 113 111 110 108 97 100 120 134 122 118 123 125 110 96 99 113 109 107 106 112 116 110 109 103 95 93 88 82 80 86 130 125 137 139 114 103 116 119 109 88 37 111 100 223 148 142 145 146 141 135 130 125 126 126 124
117 118 121 151 73 146 144 146 139 134 136 133 125 124 119 116 122 146 154 149 153 151 158 152 140 146 139 123 116 113 112 110 109 111 115 97 89 88 95 110 123 133 141 135 134 119 123 126 124 115 109 102 98 98 93 86 80 68 58 49 49 105 160 148 124 139 144 141 136 93 104 95 328 273 141 141 148 143 133 126 125 131 132 125 121
132 142 137 85 53 149 149 146 132 124 119 112 119 128 126 125 135 154 172 149 155 161 156 148 142 137 143 120 115 113 113 113 111 105 106 119 114 93 89 122 123 123 132 139 154 145 114 107 109 108 98 90 93 91 81 72 62 49 44 32 27 34 147 136 140 146 152 153 143 138 132 159 223 316 154 144 148 146 152 149 151 149 140 147 151
143 147 130 72 56 61 117 109 108 121 135 122 123 126 137 136 135 143 180 156 159 167 154 143 135 140 145 123 112 109 112 114 112 111 109 110 120 134 124 90 93 95 96 119 113 100 93 89 87 87 88 80 78 75 67 56 44 42 36 33 28 43 110 117 136 146 154 151 131 156 149 198 236 200 170 162 165 178 170 156 163 174 161 180 181
136 129 101 64 76 65 32 127 136 150 140 137 133 136 156 142 140 138 161 159 152 169 143 126 127 135 153 123 111 114 109 108 107 109 109 108 109 117 133 135 103 88 91 88 85 78 79 76 74 75 68 61 56 51 51 45 39 31 35 32 33 42 130 133 117 142 154 149 136 166 174 246 262 216 209 184 192 195 197 187 189 229 216 209 209
137 118 87 84 86 90 74 350 198 160 132 140 157 154 175 198 142 138 133 158 169 129 123 120 143 150 144 126 123 121 120 106 103 104 104 103 102 102 97 96 96 94 89 88 87 86 80 73 66 55 51 43 37 32 25 27 17 19 21 26 28 21 169 141 145 171 179 167 184 209 210 241 270 223 229 212 213 212 227 236 224 230 228 227 237
117 105 97 100 102 98 91 269 358 18 359 296 181 159 148 180 201 142 139 145 165 140 161 146 159 179 162 140 136 133 119 105 98 93 92 97 98 95 92 92 89 88 85 81 81 75 67 55 46 35 35 26 15 12 12 7 11 4 5 5 9 15 15 170 197 195 190 210 206 219 222 249 256 227 243 238 230 233 239 228 239 236 253 239 236
111 100 103 105 103 93 116 207 188 78 310 12 3 341 198 200 199 146 125 136 152 187 156 163 164 181 152 147 144 134 113 108 94 96 92 94 96 86 84 81 81 76 75 77 74 68 64 41 30 21 10 9 3 356 358 2 357 355 352 349 346 352 323 175 183 198 206 213 203 208 221 240 241 237 243 240 233 234 242 246 243 245 239 245 238
117 109 103 104 108 102 97 238 193 166 60 25 7 339 307 201 224 67 136 140 139 206 175 166 173 164 142 142 136 107 93 80 94 61 82 73 69 71 73 70 63 59 53 44 41 31 18 12 3 354 348 352 347 345 343 346 346 340 336 336 314 311 92 125 194 201 205 211 200 205 217 225 233 235 238 240 234 241 249 245 237 238 240 237 239
109 96 101 104 103 105 117 183 214 158 100 51 22 310 292 176 19 28 142 138 141 181 196 165 154 176 146 118 76 57 45 25 38 3 54 52 53 52 52 50 46 41 29 21 18 12 0 350 346 341 341 335 335 334 333 330 329 321 315 310 338 114 191 168 195 199 205 206 203 194 213 219 225 231 233 236 235 235 234 235 242 236 238 242 245
130 122 111 111 102 115 128 152 182 128 85 39 12 286 274 115 126 333 7 131 158 155 182 243 129 30 95 84 71 60 53 43 34 40 35 38 16 42 35 33 30 20 10 3 355 349 345 336 334 335 328 319 322 9 346 320 308 304 299 301 346 253 195 186 185 196 198 200 198 200 210 214 220 227 230 231 230 230 232 231 233 234 239 244 249
148 135 122 122 112 116 129 143 152 134 135 139 104 290 91 54 309 32 346 149 128 114 199 170 112 115 84 76 74 63 48 46 62 66 58 36 31 29 23 12 10 3 349 359 355 346 340 340 339 335 332 337 10 320 290 270 278 290 295 301 269 251 233 206 194 193 199 193 194 200 208 212 217 226 229 226 227 230 233 234 232 237 241 243 248
163 160 145 111 122 123 129 141 163 150 136 128 128 94 115 87 355 29 131 129 100 166 147 82 82 83 81 73 69 59 47 19 26 15 38 34 11 7 6 14 6 360 342 357 340 330 328 330 327 324 328 317 281 273 268 252 263 259 265 260 257 243 231 211 202 194 188 199 194 205 207 210 216 226 229 226 226 229 232 232 232 239 243 248 249
153 135 130 134 138 137 136 139 135 136 132 127 128 126 78 73 78 147 180 129 129 116 79 85 86 78 76 74 63 53 41 28 23 21 21 22 14 7 353 4 360 341 342 342 332 318 332 325 329 331 310 302 297 289 284 286 278 285 284 282 288 290 255 214 191 183 183 201 198 207 206 209 217 225 228 228 228 232 233 232 237 240 245 250 252
144 145 161 144 146 147 132 139 95 43 59 81 116 148 124 146 152 179 158 95 81 72 72 79 76 70 73 68 57 52 33 22 6 4 4 10 348 335 348 352 342 318 334 320 312 320 320 312 313 303 287 238 244 247 241 247 261 262 266 274 273 275 262 193 167 179 189 200 206 208 208 209 218 226 229 230 230 234 238 241 242 246 250 255 258
159 146 144 143 153 162 144 136 161 143 85 68 88 113 116 163 161 162 118 71 71 75 66 63 64 66 57 50 57 40 31 13 358 352 329 355 328 332 325 327 313 311 333 331 317 316 315 312 307 295 290 285 272 244 229 231 237 252 256 260 264 259 146 138 172 186 195 199 213 210 209 213 222 227 230 233 233 235 241 246 248 251 254 258 261
134 148 150 150 155 166 143 166 171 166 129 143 124 133 132 181 145 114 82 123 84 67 59 62 67 55 64 48 66 62 40 1 341 327 311 357 313 329 313 315 316 310 314 320 314 313 313 312 300 295 293 285 283 287 270 235 218 219 243 253 230 142 166 174 185 192 194 203 212 217 209 217 224 228 230 234 238 239 243 247 251 255 259 263 266
149 157 169 155 145 157 155 165 171 165 155 160 160 132 132 118 108 92 95 132 69 78 84 72 73 86 71 67 49 30 29 4 313 309 352 305 306 312 317 298 308 303 324 307 296 307 306 304 299 290 289 290 285 283 268 259 212 208 208 173 165 176 181 183 192 200 203 206 209 224 216 219 225 229 232 237 241 244 246 249 253 257 261 264 267
162 165 170 161 151 156 159 166 166 163 167 177 166 166 169 152 118 114 227 104 108 85 83 59 80 95 74 85 19 184 259 273 277 315 321 296 297 306 300 301 308 302 305 296 302 293 293 301 293 287 299 296 293 279 268 260 203 163 162 168 193 198 193 191 197 208 214 220 225 229 228 225 227 232 236 239 242 246 249 252 254 257 260 262 265
149 164 165 162 164 161 161 167 165 164 169 173 165 172 167 155 149 123 130 96 127 99 73 91 68 95 142 162 213 239 237 232 244 267 264 275 294 301 302 313 299 289 281 284 297 275 280 271 285 301 302 304 297 317 291 189 153 128 160 190 209 207 218 220 235 222 229 229 233 231 246 242 235 237 241 244 246 248 251 254 257 259 261 263 265
161 164 161 158 164 164 163 165 169 164 171 169 168 165 163 158 145 120 143 126 134 138 164 161 216 228 218 211 227 236 245 231 226 264 253 272 283 292 293 299 285 288 279 272 281 276 274 283 281 274 281 297 317 331 335 131 131 133 157 205 194 218 229 231 240 231 235 228 222 230 233 246 252 246 244 246 248 250 251 254 257 260 263 265 267
164 153 154 157 162 164 163 163 166 164 170 169 169 164 148 152 149 150 152 150 156 159 204 212 228 224 211 221 227 225 225 231 235 239 258 245 265 283 293 283 286 303 313 312 308 305 321 328 320 328 333 334 326 335 115 114 156 145 168 223 223 237 240 233 241 240 232 226 213 218 224 234 246 262 260 255 251 252 253 254 256 258 259 260 263
151 144 150 162 163 159 161 162 166 168 175 166 163 154 149 148 151 152 162 156 173 183 210 215 215 218 220 225 228 226 229 227 227 248 237 238 238 263 287 299 301 312 323 339 342 349 340 334 331 342 322 340 322 341 118 225 47 90 148 227 222 250 243 250 242 240 243 238 226 216 231 234 244 250 258 264 264 261 258 258 259 260 260 259 260
145 149 164 160 163 161 163 169 168 170 176 169 166 149 148 149 150 158 171 180 183 199 211 214 216 233 225 236 224 221 223 219 212 213 216 199 212 273 292 284 309 319 338 349 358 340 339 322 325 318 301 317 314 317 152 213 220 196 210 218 242 241 238 242 248 255 248 262 263 248 238 243 242 243 250 255 262 263 266 264 263 263 264 263 263
157 156 156 159 161 161 165 164 167 170 173 170 157 153 156 161 159 172 180 195 204 209 216 211 212 226 222 222 212 211 201 200 191 181 181 187 196 249 276 300 319 334 341 355 4 339 328 314 293 268 335 336 343 341 100 175 226 244 230 227 240 239 237 246 251 262 271 271 259 266 254 246 244 248 254 252 256 262 264 268 270 271 271 270 268
153 153 156 163 159 165 166 162 170 174 170 166 152 154 155 165 168 184 183 193 215 234 251 246 200 186 191 193 188 192 173 182 172 164 172 181 205 249 279 306 320 23 7 3 334 313 312 334 321 342 256 304 353 352 10 172 209 221 219 224 222 213 227 238 239 238 287 277 268 264 260 257 258 262 259 260 261 264 262 262 267 269 268 269 270
156 155 160 164 166 167 164 162 168 172 164 165 162 159 165 163 175 186 195 188 218 241 243 218 211 178 145 187 195 186 157 166 143 136 171 191 182 246 293 323 20 38 22 345 324 300 339 12 322 320 333 11 27 13 345 243 220 245 246 240 249 237 241 246 254 251 249 265 264 256 251 261 260 256 257 255 257 253 262 266 268 273 274 274 274
157 158 160 161 160 167 156 163 164 173 165 161 156 150 149 152 160 165 198 201 231 239 229 216 212 165 153 186 210 180 149 135 123 159 185 206 227 275 290 338 93 59 18 348 330 345 353 15 330 324 335 54 69 20 332 296 292 266 269 281 298 245 246 248 243 246 244 249 264 264 255 252 253 254 259 264 264 258 260 266 279 286 278 278 282
156 158 158 160 160 167 153 156 162 167 150 147 146 141 142 159 162 151 191 228 218 222 216 210 176 182 191 192 210 173 148 139 155 179 162 173 337 9 309 81 78 64 26 357 345 351 341 337 335 353 351 4 64 76 43 59 67 49 343 344 322 327 300 270 298 263 255 246 247 258 265 277 264 290 293 301 296 286 276 273 274 268 284 301 305
157 160 160 167 167 172 160 169 166 156 158 157 157 154 151 153 137 178 201 197 192 198 201 207 189 189 189 202 203 176 161 167 182 183 149 88 99 54 66 67 72 65 33 328 304 316 333 313 301 342 5 28 10 360 45 51 67 37 354 347 331 306 306 13 328 311 273 279 270 305 314 313 307 316 339 347 317 288 258 265 271 316 317 303 309
173 168 171 173 172 168 171 169 155 162 167 170 171 169 175 175 157 182 173 165 172 174 198 201 194 187 188 200 197 178 180 186 187 169 118 130 122 66 48 86 84 89 66 317 329 356 3 16 357 1 28 42 24 346 352 156 51 167 201 289 338 332 339 343 18 327 329 326 325 305 283 290 318 344 321 334 298 287 297 312 312 297 293 297 294
170 174 172 164 170 175 179 168 166 169 171 168 161 184 191 181 171 169 167 185 222 192 170 161 170 182 188 197 186 185 182 194 187 152 136 133 123 117 69 65 83 92 53 13 19 7 2 10 22 35 327 3 346 341 12 36 127 164 38 70 14 4 329 354 330 273 259 245 249 265 322 331 322 337 336 301 310 322 319 312 304 296 293 293 295
169 174 174 175 174 179 182 174 172 171 169 177 176 190 185 193 193 145 183 144 186 154 129 114 138 155 204 201 206 182 188 188 170 158 98 120 139 139 105 72 62 76 115 62 9 8 356 2 12 23 88 13 359 336 20 27 94 173 332 24 302 84 337 322 315 292 286 291 310 327 329 316 324 328 320 293 295 304 294 297 298 298 296 300 308
179 180 180 178 183 183 181 181 175 172 173 183 183 175 158 117 87 65 97 59 49 84 104 106 168 186 178 200 212 189 189 187 171 169 160 149 118 103 112 114 84 96 113 68 27 338 322 310 358 12 43 94 348 314 321 41 37 52 132 109 354 4 235 259 339 288 344 339 336 331 313 300 303 293 280 279 273 267 284 292 299 311 311 314 308
186 188 183 179 177 181 174 179 179 172 175 185 177 162 166 160 144 139 144 148 123 140 170 184 183 185 196 194 186 187 182 187 178 173 173 145 143 137 126 93 61 61 56 75 46 345 353 6 8 3 23 124 169 28 348 2 37 36 70 145 183 187 270 279 8 317 322 241 309 290 280 296 286 305 304 299 305 306 309 310 317 312 318 319 306
193 182 181 180 176 172 177 176 180 183 179 180 170 168 164 171 176 180 177 178 176 209 201 189 183 191 170 181 195 180 183 188 198 182 178 179 159 149 144 137 88 42 12 52 359 336 321 283 314 8 77 316 70 48 14 322 337 26 26 16 46 60 156 85 307 285 338 318 326 322 313 323 319 320 316 305 305 312 322 315 309 316 327 307 290
184 176 181 180 179 174 171 179 182 183 185 171 173 173 172 178 185 192 188 186 187 195 190 191 181 165 171 189 185 196 186 189 195 196 189 188 180 170 154 134 142 28 339 342 300 311 291 277 4 335 22 25 81 70 16 21 61 303 348 5 19 106 64 117 129 233 268 295 312 305 261 311 323 324 321 308 312 315 314 315 309 311 305 285 293
176 180 184 183 182 175 168 173 185 184 185 174 172 182 179 179 184 186 195 206 203 199 172 161 162 172 177 179 191 199 199 200 198 206 203 195 200 194 168 162 179 212 207 235 243 255 267 280 289 251 290 15 108 143 73 33 166 312 333 334 329 6 329 43 92 118 211 270 287 297 314 318 302 311 331 298 278 281 297 302 302 308 310 305 304
185 181 181 175 178 174 172 173 189 189 179 177 177 181 182 176 179 187 191 197 196 151 152 166 169 174 184 190 195 195 206 206 213 212 212 203 202 196 185 199 210 208 231 216 242 263 238 228 244 248 241 265 187 205 232 216 210 242 207 213 357 334 359 33 63 121 247 206 256 297 309 322 329 312 318 315 318 315 315 309 308 304 291 305 322
180 177 178 179 178 178 180 177 190 187 178 178 176 182 181 175 184 186 192 190 186 173 162 175 155 169 191 198 196 211 207 214 207 216 214 211 207 200 200 210 203 215 225 228 256 271 271 251 229 220 232 245 256 213 249 227 223 248 230 205 245 209 227 247 281 275 240 262 290 279 286 284 280 309 296 308 305 305 306 307 297 305 321 335 335